This is the latest recevied weather packets stored in our database for station/object K9ZOG. If no packets are shown the sender has not sent any weather packets the latest 10 day(s).
| Time | Temp. | Humidity | Pressure | Rain* | Wind** | Luminosity | Snow |
|---|---|---|---|---|---|---|---|
| 1777833554 | 12.78° C | 60% | 1011.1 hPa | 0 mm | - | 306 W/m² | - |
| 1777833252 | 13.33° C | 59% | 1011.1 hPa | 0 mm | - | 329 W/m² | - |
| 1777832952 | 13.33° C | 58% | 1011 hPa | 0 mm | - | 404 W/m² | - |
| 1777832652 | 13.89° C | 57% | 1011.1 hPa | 0 mm | - | 551 W/m² | - |
| 1777832355 | 14.44° C | 55% | 1011 hPa | 0 mm | - | 652 W/m² | - |
| 1777832054 | 14.44° C | 54% | 1010.9 hPa | 0 mm | - | 895 W/m² | - |
| 1777831754 | 14.44° C | 53% | 1011.1 hPa | 0 mm | - | 888 W/m² | - |
| 1777831452 | 14.44° C | 52% | 1010.9 hPa | 0 mm | - | 397 W/m² | - |
| 1777831152 | 14.44° C | 53% | 1011.1 hPa | 0 mm | - | 892 W/m² | - |
| 1777830853 | 14.44° C | 53% | 1011.1 hPa | 0 mm | - | 879 W/m² | - |
| 1777830553 | 13.89° C | 53% | 1011.1 hPa | 0 mm | - | 877 W/m² | - |
| 1777830253 | 13.89° C | 54% | 1011.2 hPa | 0 mm | - | 444 W/m² | - |
| 1777829953 | 13.89° C | 54% | 1011.1 hPa | 0 mm | - | 391 W/m² | - |
| 1777829652 | 13.89° C | 53% | 1011.3 hPa | 0 mm | - | 452 W/m² | - |
| 1777829352 | 13.89° C | 53% | 1011.4 hPa | 0 mm | - | 214 W/m² | - |
| 1777829053 | 13.89° C | 54% | 1011.3 hPa | 0 mm | - | 440 W/m² | - |
| 1777828754 | 13.89° C | 54% | 1011.6 hPa | 0 mm | - | 281 W/m² | - |
| 1777828452 | 13.89° C | 53% | 1011.4 hPa | 0 mm | - | 325 W/m² | - |
| 1777828152 | 13.33° C | 54% | 1011.5 hPa | 0 mm | - | 221 W/m² | - |
| 1777827853 | 13.33° C | 53% | 1011.5 hPa | 0 mm | - | 127 W/m² | - |
| 1777827554 | 13.33° C | 55% | 1011.7 hPa | 0 mm | - | 126 W/m² | - |
| 1777827252 | 13.33° C | 54% | 1011.9 hPa | 0 mm | - | 127 W/m² | - |
| 1777826953 | 13.33° C | 55% | 1011.9 hPa | 0 mm | - | 130 W/m² | - |
| 1777826652 | 12.78° C | 54% | 1011.7 hPa | 0 mm | - | 138 W/m² | - |
| 1777826353 | 12.78° C | 55% | 1011.9 hPa | 0 mm | - | 187 W/m² | - |
* Rain latest hour (hover to see other rain measurements)
** Current wind speed in m/s (hover to see current wind gust speed)